Temp
-14 -13 -11 -8 -6 -6 -5 -4 -2 -3 -2 -1 0 1 1 1 1 1 1 2 1 1 1 1 1 1 1
-15 -15 -14 -12 -10 -8 -7 -6 -4 -3 -3 -3 -1 -1 0 1 1 1 1 1 1 1 1 0 0 0 1
-16 -16 -16 -15 -13 -12 -10 -9 -8 -5 -3 -4 -2 -1 -0 -0 0 1 1 1 1 1 2 1 1 0 0
-17 -17 -17 -16 -16 -14 -13 -12 -11 -10 -7 -4 -5 -3 -2 -1 -1 0 0 0 1 1 1 1 1 1 1
-18 -18 -17 -17 -17 -16 -15 -14 -13 -13 -11 -9 -6 -5 -5 -3 -1 -1 0 0 0 1 1 -0 0 0 1
-19 -19 -18 -18 -18 -18 -17 -15 -14 -13 -14 -12 -10 -7 -7 -6 -4 -1 -1 -0 -0 0 1 1 -0 0 0
-20 -19 -19 -19 -19 -19 -18 -17 -16 -15 -15 -14 -12 -10 -8 -7 -6 -3 -2 -1 -2 0 0 0 -0 1 -0
-21 -20 -20 -19 -20 -20 -20 -19 -18 -16 -17 -16 -15 -12 -11 -9 -8 -7 -6 -4 -2 -1 -1 -0 -0 0 -1
-21 -20 -20 -20 -20 -21 -20 -20 -20 -17 -17 -17 -15 -15 -13 -11 -10 -8 -6 -7 -2 -2 -1 -0 -0 -0 0
-20 -21 -21 -21 -21 -21 -20 -20 -20 -19 -16 -19 -17 -18 -15 -12 -11 -10 -8 -8 -8 -3 -3 -2 -0 -0 -0
-22 -21 -21 -20 -20 -20 -20 -20 -20 -19 -17 -19 -18 -18 -17 -15 -13 -11 -10 -7 -7 -8 -5 -2 -1 -0 -0
-21 -21 -20 -20 -20 -20 -20 -20 -19 -19 -18 -19 -19 -18 -17 -16 -15 -13 -11 -9 -7 -9 -6 -3 -2 -1 -0
-21 -20 -20 -20 -20 -20 -20 -20 -20 -19 -18 -18 -18 -17 -18 -17 -16 -14 -13 -10 -9 -8 -6 -4 -4 -2 -1
-21 -21 -20 -20 -20 -20 -20 -20 -20 -19 -18 -18 -18 -18 -18 -17 -17 -16 -15 -13 -10 -7 -6 -8 -4 -3 -3
-22 -21 -21 -21 -20 -20 -20 -20 -20 -19 -18 -18 -18 -18 -18 -18 -17 -16 -16 -14 -12 -10 -9 -8 -8 -4 -5
-22 -22 -21 -21 -21 -20 -20 -20 -20 -19 -19 -18 -18 -18 -18 -17 -17 -16 -15 -15 -14 -12 -10 -8 -7 -8 -5
-23 -22 -22 -22 -22 -21 -21 -21 -20 -20 -19 -19 -19 -19 -18 -17 -15 -16 -16 -15 -15 -14 -12 -10 -6 -6 -8
Height
2958 2959 2970 2971 2971 2975 2979 2984 2989 2994 3000 3005 3010 3016 3021 3028 3034 3041 3047 3052 3058 3063 3067 3072 3077 3083 3088
2945 2945 2945 2955 2955 2952 2957 2961 2966 2973 2979 2985 2990 2996 3002 3008 3014 3021 3028 3035 3040 3046 3051 3057 3062 3069 3075
2932 2932 2930 2933 2939 2938 2936 2938 2943 2949 2955 2962 2968 2975 2982 2987 2992 3001 3009 3015 3023 3029 3035 3041 3047 3053 3060
2923 2920 2918 2917 2919 2924 2921 2920 2921 2928 2932 2937 2945 2951 2958 2965 2973 2980 2987 2996 3003 3012 3018 3025 3032 3038 3044
2911 2909 2907 2906 2903 2907 2905 2905 2904 2908 2911 2913 2919 2928 2936 2942 2948 2959 2965 2974 2983 2990 2997 3005 3015 3021 3028
2900 2897 2897 2894 2893 2890 2891 2890 2888 2898 2890 2893 2898 2901 2910 2920 2926 2936 2944 2952 2958 2971 2979 2985 2996 3004 3010
2888 2887 2883 2884 2880 2877 2876 2879 2876 2878 2874 2870 2880 2879 2888 2893 2901 2909 2921 2931 2938 2950 2958 2965 2972 2983 2991
2879 2876 2874 2873 2870 2868 2866 2862 2862 2863 2863 2852 2862 2860 2866 2873 2883 2890 2898 2906 2916 2928 2936 2944 2952 2961 2971
2868 2865 2863 2861 2860 2859 2855 2852 2846 2847 2848 2843 2845 2843 2849 2854 2862 2869 2876 2881 2893 2903 2914 2922 2932 2940 2947
2856 2854 2852 2849 2849 2847 2845 2840 2839 2834 2839 2834 2833 2831 2826 2834 2840 2848 2854 2860 2871 2878 2890 2898 2910 2920 2929
2843 2839 2837 2836 2833 2832 2831 2829 2825 2820 2824 2823 2818 2816 2815 2814 2821 2829 2835 2842 2849 2857 2870 2879 2888 2896 2909
2829 2826 2824 2822 2819 2816 2814 2811 2809 2806 2812 2810 2805 2804 2802 2800 2801 2809 2815 2822 2828 2840 2851 2858 2867 2876 2884
2816 2813 2810 2807 2804 2801 2799 2797 2793 2792 2794 2794 2792 2791 2788 2785 2786 2789 2794 2803 2809 2823 2830 2833 2846 2854 2863
2803 2799 2796 2793 2789 2787 2783 2781 2777 2777 2779 2779 2777 2776 2773 2772 2774 2774 2777 2780 2792 2803 2807 2813 2824 2830 2842
2791 2787 2783 2779 2776 2774 2769 2766 2762 2761 2761 2764 2763 2761 2759 2758 2756 2760 2763 2765 2775 2785 2791 2796 2804 2812 2823
2781 2776 2771 2767 2762 2759 2756 2752 2748 2747 2745 2747 2747 2745 2743 2741 2744 2745 2750 2751 2759 2768 2772 2774 2783 2799 2806
2769 2765 2760 2754 2750 2745 2742 2738 2733 2731 2730 2731 2730 2729 2725 2720 2731 2733 2732 2735 2736 2740 2748 2755 2766 2779 2784
Wind_Speed
60 61 55 60 66 66 73 82 84 80 79 70 71 68 71 77 67 66 66 58 57 59 56 52 51 48 48
59 59 61 54 60 69 68 73 85 88 81 82 76 75 73 67 70 72 69 69 71 68 63 59 55 51 49
61 58 59 57 55 60 68 70 73 83 93 85 86 78 76 74 66 65 67 70 69 70 68 65 62 57 53
55 55 56 56 54 55 60 63 66 69 80 93 86 90 82 75 71 71 71 70 74 71 72 70 68 65 62
51 50 51 51 53 50 52 57 62 59 65 76 90 87 93 89 76 78 76 71 71 76 77 74 71 70 68
47 49 48 49 49 49 48 50 59 57 55 64 73 85 83 87 88 85 76 73 66 71 75 72 76 73 73
46 46 47 46 48 49 48 46 50 52 54 61 59 74 80 83 86 96 84 75 66 77 75 79 76 71 75
43 46 46 47 46 47 46 46 47 48 47 56 53 60 67 74 76 83 90 88 70 79 77 76 76 83 79
39 41 42 42 41 41 43 45 49 48 46 50 52 54 57 64 65 76 87 85 72 59 74 80 80 83 81
38 38 38 40 39 40 43 45 45 51 48 54 54 54 56 56 61 62 75 83 91 92 63 64 79 86 83
45 46 46 47 48 49 48 50 51 54 50 51 54 55 55 55 56 59 64 79 82 85 78 64 72 76 75
48 48 47 46 46 47 48 50 51 52 46 48 53 55 55 55 56 55 59 69 76 80 82 72 77 76 73
46 46 45 45 45 46 46 47 49 50 48 47 50 51 54 57 55 55 54 61 64 82 88 84 59 81 74
44 45 44 44 44 43 45 44 46 48 46 47 49 50 53 54 54 55 56 57 58 75 85 89 67 55 56
42 43 44 43 44 42 43 44 45 46 46 44 46 48 51 52 55 54 56 58 55 57 68 76 82 68 54
40 41 42 43 43 42 42 43 45 45 46 44 43 47 51 54 54 54 54 58 55 53 58 70 80 89 67
41 42 43 43 43 45 45 46 47 47 46 43 44 45 51 57 50 51 53 54 55 53 55 59 86 80 84
Wind_Direction
284 281 268 260 257 250 244 238 236 240 239 235 233 231 237 238 238 235 236 234 235 238 238 242 241 241 243
283 282 279 269 261 259 253 246 239 236 239 239 237 238 235 231 232 236 234 236 233 231 233 237 240 240 241
282 283 283 280 270 265 263 259 249 243 237 239 238 232 231 231 231 230 233 233 236 235 231 233 235 238 238
281 282 283 284 281 273 268 267 264 256 246 241 240 238 230 228 228 229 230 235 237 237 235 233 234 236 237
285 282 283 284 285 281 274 273 270 270 260 251 245 240 240 237 227 229 225 229 233 233 234 233 234 233 235
286 284 283 285 286 288 282 277 273 267 274 261 253 247 245 240 237 227 225 224 231 229 231 231 233 235 233
283 281 283 283 283 283 284 280 277 276 275 271 262 255 249 246 243 235 226 227 232 229 229 231 225 232 236
276 279 279 281 281 284 286 286 279 275 280 277 270 262 256 250 247 241 244 239 227 227 228 223 224 230 230
283 280 280 281 282 285 281 280 278 273 272 277 274 271 263 256 253 243 240 244 220 223 221 222 226 230 228
286 282 280 278 275 274 278 278 279 277 271 274 274 276 270 256 253 249 244 242 243 232 229 223 219 228 231
283 281 282 282 282 282 278 277 275 273 275 275 275 274 272 269 256 248 247 242 242 243 235 225 221 218 220
282 283 285 284 282 280 278 276 275 274 273 269 269 271 273 270 265 256 249 244 241 237 239 220 225 225 220
287 288 288 287 285 283 280 278 275 273 273 270 269 268 268 269 269 264 260 247 244 236 242 230 220 218 218
291 292 293 292 290 287 284 280 277 273 271 269 267 267 268 267 268 266 264 257 245 236 243 246 223 209 212
294 296 296 294 291 289 286 283 280 276 273 268 266 265 264 265 265 262 263 260 251 243 243 244 241 226 224
297 298 297 296 295 293 290 287 284 279 276 272 269 265 263 261 261 263 261 262 257 248 246 244 241 242 226
298 300 300 299 298 296 294 292 289 286 281 276 271 268 265 263 259 260 264 262 263 256 246 242 237 239 243